Flag for United Kingdom Weather past 2 weeks in Chichester, England, United Kingdom

Now
51 °F

Cool.


Feels Like: 44 °F
Forecast: 44 / 53 °F
Wind: 22 mph from Southwest

Location: Thorney Island

Current Time: Apr 28, 2015 at 7:34:54 PM

Latest Report: Apr 28, 2015 at 6:00 PM


Visibility: 22 mi

Pressure: 30.10 "Hg

Humidity: 61%

Dew point: 38 °F

Location of ChichesterLocation

Historic Weather in Chichester — Graph

°F

Chichester temperature yesterday

Maximum temperature yesterday: 54 °F (at 1:00 PM)
Minimum temperature yesterday: 39 °F (at 6:00 AM)
Average temperature yesterday: 47 °F

Past Weeks' High & Low Weather Summary

 TemperatureHumidityPressure
High68 °F (Apr 16, 3:00 PM)100% (Apr 14, 3:00 AM)30.53 "Hg (Apr 14, 3:00 AM)
Low36 °F (Apr 20, 4:00 AM)35% (Apr 21, 3:00 PM)29.70 "Hg (Apr 26, 6:00 AM)
Average51 °F74%30.11 "Hg
* Reported Apr 13 6:00 PM — Apr 28 6:00 PM, Chichester, Weather by CustomWeather, © 2015

Note: Actual official high and low records may vary slightly from our data, if they occured in-between our weather recording intervals... More about our weather records

Advertising

Chichester weather history for previous 24 hours

 ConditionsComfort  
Time TempWeatherWind HumidityBarometerVisibility
6:00 PM
Tue, Apr 28
51 °FCool.22 mph61%30.10 "Hg22 mi
5:00 PM51 °FCool.20 mph57%30.10 "Hg25 mi
4:00 PM53 °FCool.20 mph54%30.10 "Hg19 mi
3:00 PM54 °FCool.20 mph51%30.11 "Hg17 mi
2:00 PM52 °FCool.14 mph52%30.10 "Hg19 mi
1:00 PM53 °FCool.15 mph49%30.10 "Hg22 mi
11:00 AM50 °FCool.15 mph54%30.09 "Hg25 mi
10:00 AM49 °FCool.12 mph60%30.08 "Hg19 mi
9:00 AM46 °FCool.14 mph63%30.07 "Hg19 mi
8:00 AM43 °FQuite cool.12 mph72%30.05 "Hg14 mi
7:00 AM42 °FQuite cool.10 mph75%30.03 "Hg7 mi
6:00 AM40 °FQuite cool.10 mph84%30.00 "Hg22 mi
5:00 AM40 °FChilly.10 mph86%29.98 "Hg28 mi
4:00 AM40 °FQuite cool.8 mph86%29.97 "Hg31 mi
3:00 AM42 °FQuite cool.13 mph82%29.96 "Hg31 mi
2:00 AM42 °FQuite cool.13 mph79%29.95 "Hg31 mi
1:00 AM44 °FQuite cool.13 mph74%29.94 "Hg28 mi
12:00 AM44 °FQuite cool.7 mph80%29.93 "Hg31 mi
11:00 PM
Mon, Apr 27
45 °FCool.10 mph77%29.93 "Hg25 mi
10:00 PM47 °FCool.10 mph73%29.92 "Hg28 mi
9:00 PM48 °FCool.12 mph69%29.91 "Hg28 mi
8:00 PM49 °FCool.15 mph59%29.90 "Hg28 mi
7:00 PM50 °FCool.17 mph62%29.89 "Hg31 mi
Weather by CustomWeather, © 2015

See weather overviewHow to use our weather pages